[[{"header":{"parameterUnit":"m.s-1","parameterCategory":2,"la1":30.2991,"la2":30.254,"lo1":-89.0895,"lo2":-89.0444,"dy":0.0017,"dx":0.0017,"nx":28,"ny":28,"refTime":"2023-08-29T03:00:00:Z","depth":"0","parameterNumber":2,"parameterNumberName":"U-component_of_CURRENTS"},"data":[0,0,0,0,0,0,0,0,0,0,0,0,0,0,0,0,0,0,0,0,0,0,0,0,0,0,0,0,0,0,0,0,0,0,0,0,0,0,0,0,0,0,0,0,0,0,0,0,0,0,0,0,0,0,0,0,0,0,0.2468,0.2468,0,0.2467,0.2467,0.2467,0.2454,0.2453,0.2453,0.2453,0.243,0.2429,0.2429,0,0,0,0,0,0,0,0,0,0,0,0,0,0.2429,0.243,0.2468,0.2468,0.2468,0.2467,0.2467,0.2467,0.2454,0.2453,0.2453,0.2453,0.243,0.2429,0.2429,0,0,0,0,0,0,0,0,0,0,0,0,0,0.2437,0.243,0.2468,0.2463,0.2462,0.2467,0.2467,0.2467,0.2454,0.2453,0.2453,0.2453,0.243,0.2429,0.2429,0.243,0,0,0.2427,0.2426,0,0,0,0,0,0,0,0,0.2437,0.2438,0.2463,0.2463,0.2463,0.2462,0.2445,0.2454,0.2454,0.2455,0.2453,0.2453,0.244,0.2438,0.2436,0.2429,0.2428,0.2427,0.2426,0.2426,0.2426,0,0,0,0,0,0,0,0.2436,0.2438,0.2465,0.2463,0.2463,0.2451,0.2452,0.2446,0.2447,0.2455,0.2454,0.2457,0.2439,0.2437,0.2436,0.2427,0.2427,0.2426,0.2426,0.2425,0.2483,0.2485,0,0,0,0,0,0,0.2442,0.2438,0.2466,0.2466,0.2451,0.2452,0.2453,0.2461,0.2447,0.2446,0.2457,0.2457,0.2438,0.2437,0.2435,0.25,0.2426,0.2425,0.2425,0.2481,0.2483,0.2486,0,0,0,0,0,0,0.2441,0.2445,0.2466,0.2453,0.2455,0.2453,0.2462,0.2461,0.2468,0.245,0.2448,0.2467,0.2438,0.2436,0.2456,0.2497,0.2425,0.2424,0.2479,0.2482,0.2484,0.2589,0,0,0,0,0,0,0.244,0.2445,0.245,0.2453,0.2456,0.2484,0.2462,0.2461,0.247,0.2469,0.2457,0.2454,0.2438,0.2458,0.2456,0.2494,0.2424,0.2476,0.248,0.2484,0.2583,0.2595,0.2606,0,0,0,0,0,0.2439,0.245,0.245,0.2453,0.2464,0.2485,0.2486,0.2481,0.2471,0.2484,0.2484,0.2455,0.2479,0.2459,0.2456,0.2495,0.2475,0.2479,0.2483,0.2578,0.2593,0.2606,0,0,0,0,0,0,0.2432,0.245,0.245,0.2465,0.2481,0.2484,0.2492,0.249,0.2498,0.2497,0.2477,0.2475,0.2513,0.2488,0.2466,0.2524,0.2473,0.2477,0.2547,0.256,0.2571,0.2563,0.2423,0,0,0,0,0,0.2435,0.245,0.2466,0.2479,0.2489,0.2493,0.2499,0.2501,0.2509,0.2512,0.2508,0.2508,0.2527,0.253,0.2537,0.2561,0.2582,0.2585,0.2596,0.2606,0.2599,0.2678,0.2697,0.25,0.25,0.25,0,0,0.2432,0.2447,0.2452,0.2479,0.2488,0.2514,0.2496,0.2516,0.254,0.2508,0.2539,0.2548,0.2545,0.2584,0.2597,0.2567,0.2683,0.2612,0.262,0.2607,0.2685,0.2704,0.2721,0.2503,0.2502,0.2502,0,0,0.2444,0.2454,0.2474,0.2496,0.2522,0.2532,0.2543,0.2561,0.2571,0.2603,0.26,0.2633,0.2642,0.266,0.2667,0.274,0.2745,0.2744,0.2789,0.2868,0.2884,0.2899,0.2997,0.3019,0.2744,0.2744,0.2744,0,0.2437,0.2469,0.2483,0.2515,0.2531,0.2545,0.2572,0.2593,0.2617,0.2631,0.2625,0.268,0.268,0.2739,0.277,0.2766,0.2818,0.274,0.2884,0.2899,0.2912,0.3008,0.3031,0.275,0.2749,0.2749,0.2748,0,0.2471,0.2497,0.2514,0.2559,0.2581,0.2607,0.264,0.2666,0.268,0.27,0.2761,0.2781,0.2806,0.2829,0.2821,0.2918,0.2931,0.2898,0.2852,0.2939,0.3034,0.3057,0.2758,0.2756,0.2754,0.2753,0,0,0.2444,0.252,0.2523,0.2548,0.2603,0.262,0.2673,0.2717,0.2756,0.2792,0.2845,0.2897,0.2908,0.2917,0.2928,0.2996,0.3157,0.2991,0.2993,0.3092,0.3365,0.3313,0.3333,0.316,0.3163,0.3166,0.341,0,0.246,0.2517,0.2554,0.2604,0.2633,0.2667,0.2714,0.2758,0.2805,0.2867,0.2904,0.297,0.2943,0.2983,0.3043,0.3135,0.3214,0.3095,0.326,0.3265,0.3212,0.3356,0.3253,0.3455,0.3432,0.3436,0.3438,0,0.2474,0.2512,0.2562,0.2623,0.2638,0.2674,0.2741,0.2789,0.2881,0.2923,0.2989,0.3031,0.3143,0.3103,0.3296,0.3228,0.3297,0.3361,0.3371,0.3291,0.3254,0.3355,0.3497,0.3376,0.3473,0.347,0.3468,0,0.2432,0.2508,0.2544,0.2567,0.2648,0.2673,0.2713,0.28,0.2847,0.2977,0.3042,0.3153,0.3241,0.334,0.3446,0.3402,0.3658,0.361,0.363,0.3628,0.3551,0.3535,0.3589,0.3738,0.3737,0.3737,0.3736,0,0.2424,0.2447,0.253,0.2547,0.2577,0.2654,0.2707,0.2766,0.2884,0.2959,0.3068,0.3161,0.3308,0.3447,0.3515,0.3658,0.3718,0.3674,0.3694,0.3588,0.3573,0.3466,0.3416,0.3746,0.3744,0.3742,0.374,0,0.2362,0.2424,0.2456,0.2538,0.2555,0.2574,0.2664,0.2731,0.2858,0.297,0.3024,0.3223,0.3425,0.3553,0.3758,0.3763,0.3793,0.3907,0.378,0.3779,0.3646,0.3606,0.3564,0.3459,0.4,0.4,0.4,0,0.2331,0.2352,0.241,0.2432,0.2465,0.2513,0.2561,0.2681,0.277,0.2993,0.3059,0.3294,0.343,0.3722,0.3817,0.3972,0.3817,0.3932,0.3799,0.3655,0.3628,0.3456,0.3357,0.3778,0.3777,0.3775,0.3774,0,0.2286,0.231,0.2354,0.2389,0.2432,0.2454,0.2542,0.2588,0.2767,0.2884,0.3078,0.3212,0.3501,0.3631,0.3822,0.3883,0.3734,0.3906,0.38,0.35,0.3276,0.3178,0.3614,0.3762,0.3764,0.3764,0.3765,0.3766,0.2264,0.2269,0.2353,0.2364,0.2399,0.2422,0.2417,0.2543,0.2648,0.2814,0.3007,0.3181,0.3425,0.3691,0.3711,0.369,0.3659,0.3611,0.3601,0.3456,0.3253,0.366,0.3779,0.378,0.3781,0.3782,0.3783,0,0.2271,0.23,0.2327,0.2344,0.2338,0.2378,0.2431,0.2432,0.2504,0.2709,0.2862,0.3133,0.327,0.3411,0.352,0.3422,0.3239,0.3321,0.3063,0.3,0.3429,0.3309,0.3276,0.3276,0.3276,0.3276,0.3277,0.3277,0.2303,0.2338,0.2334,0.231,0.2296,0.2263,0.2263,0.227,0.2372,0.2516,0.2669,0.287,0.3135,0.3306,0.3249,0.3175,0.291,0.28,0.2753,0.3065,0.3089,0.3111,0.2984,0.2883,0.2883,0.2187,0.2183,0.2179]},{"header":{"parameterUnit":"m.s-1","parameterCategory":2,"la1":30.2991,"la2":30.254,"lo1":-89.0895,"lo2":-89.0444,"dy":0.0017,"dx":0.0017,"nx":28,"ny":28,"refTime":"2023-08-29T03:00:00:Z","depth":"0","parameterNumber":3,"parameterNumberName":"V-component_of_CURRENTS"},"data":[0,0,0,0,0,0,0,0,0,0,0,0,0,0,0,0,0,0,0,0,0,0,0,0,0,0,0,0,0,0,0,0,0,0,0,0,0,0,0,0,0,0,0,0,0,0,0,0,0,0,0,0,0,0,0,0,0,0,0.0138,0.0137,0,0.0028,0.0027,0.0025,-0.004,-0.004,-0.004,-0.004,-0.011,-0.0111,-0.0113,0,0,0,0,0,0,0,0,0,0,0,0,0,0.0188,0.0187,0.0138,0.0137,0.0136,0.0028,0.0027,0.0025,-0.004,-0.004,-0.004,-0.004,-0.0109,-0.0111,-0.0113,0,0,0,0,0,0,0,0,0,0,0,0,0,0.0128,0.0187,0.0138,0.0093,0.0088,0.0029,0.0026,0.0024,-0.004,-0.004,-0.004,-0.004,-0.0108,-0.0111,-0.0113,-0.0129,0,0,-0.0122,-0.0123,0,0,0,0,0,0,0,0,0.0132,0.0126,0.01,0.0096,0.009,0.001,0.0019,-0.0024,-0.004,0.0005,-0.004,-0.004,-0.0064,-0.007,-0.0095,-0.0132,-0.0135,-0.0122,-0.0124,-0.0125,-0.0126,0,0,0,0,0,0,0,0.0136,0.013,0.0092,0.0099,0.0093,0.0042,0.0034,0.0009,-0.0029,0.0001,-0.0003,-0.0011,-0.0067,-0.0093,-0.0097,-0.0136,-0.0122,-0.0124,-0.0126,-0.0127,-0.0199,-0.0199,0,0,0,0,0,0,0.0161,0.0135,0.0095,0.0089,0.0114,0.0042,0.0033,0.0033,-0.003,-0.0039,-0.0011,-0.0013,-0.0088,-0.0094,-0.01,-0.0104,-0.0125,-0.0127,-0.0129,-0.0199,-0.0199,-0.02,0,0,0,0,0,0,0.0163,0.0159,0.01,0.0111,0.01,0.0042,0.0043,0.0031,0.001,-0.0039,-0.0048,-0.0019,-0.0088,-0.0096,-0.0125,-0.0107,-0.0129,-0.0131,-0.0199,-0.0199,-0.0199,-0.0122,0,0,0,0,0,0,0.0165,0.016,0.0167,0.0113,0.01,0.0079,0.0042,0.0029,0.0006,0.0002,-0.0049,-0.0056,-0.0089,-0.0121,-0.0128,-0.0111,-0.0133,-0.0198,-0.0199,-0.0199,-0.0125,-0.012,-0.0116,0,0,0,0,0,0.0167,0.0179,0.0168,0.0163,0.0113,0.0079,0.0068,0.0024,0.0007,0.0003,-0.0041,-0.0054,-0.0129,-0.0124,-0.0132,-0.0115,-0.0198,-0.0199,-0.0199,-0.0126,-0.0121,-0.0117,0,0,0,0,0,0,0.0203,0.0172,0.0159,0.0162,0.013,0.007,0.0061,0.0032,-0.0009,-0.0012,-0.006,-0.007,-0.0089,-0.0119,-0.0111,-0.0141,-0.0165,-0.0167,-0.0107,-0.0102,-0.0098,-0.0067,-0.0135,0,0,0,0,0,0.0217,0.0219,0.0179,0.0182,0.0171,0.0118,0.0098,0.0071,0.0029,0.001,-0.0026,-0.0066,-0.01,-0.0113,-0.0148,-0.0161,-0.0167,-0.0158,-0.0154,-0.015,-0.0132,-0.0138,-0.0131,-0.0202,-0.0202,-0.0202,0,0,0.0229,0.0215,0.0214,0.019,0.016,0.0149,0.0105,0.0085,0.0076,0.0012,-0.0009,-0.0051,-0.0103,-0.0123,-0.0133,-0.0142,-0.0133,-0.0151,-0.0147,-0.0131,-0.0138,-0.013,-0.0124,-0.0202,-0.0202,-0.0202,0,0,0.0257,0.0247,0.0257,0.0238,0.0208,0.0176,0.0177,0.0127,0.0106,0.0079,0.0029,-0.0003,-0.0052,-0.0087,-0.0111,-0.0105,-0.0113,-0.0116,-0.0063,-0.0068,-0.0062,-0.0056,-0.0042,-0.0036,-0.011,-0.011,-0.011,0,0.0274,0.0281,0.0253,0.0257,0.0245,0.0196,0.0199,0.0172,0.0118,0.0108,0.0088,0.0014,-0.0033,-0.0055,-0.0061,-0.0091,-0.0088,-0.0073,-0.0059,-0.0054,-0.0049,-0.0037,-0.0031,-0.0106,-0.0107,-0.0107,-0.0107,0,0.0306,0.031,0.0315,0.0306,0.0291,0.0286,0.025,0.0236,0.0208,0.0179,0.0156,0.0091,0.0055,0.0028,-0.0016,-0.001,-0.0016,-0.0052,-0.0061,-0.0037,-0.0026,-0.0021,-0.0101,-0.0102,-0.0103,-0.0104,0,0,0.035,0.0339,0.0341,0.0344,0.0317,0.0309,0.0304,0.0283,0.0299,0.0247,0.027,0.0183,0.0161,0.0132,0.0079,0.0064,0.0088,0.0028,0.0026,0.0061,0.0101,0.0082,0.0086,0.0061,0.0062,0.0063,0.0101,0,0.0382,0.04,0.0385,0.0399,0.0401,0.0368,0.0375,0.0354,0.0338,0.0353,0.0294,0.0298,0.0199,0.0207,0.0168,0.012,0.0103,0.0083,0.0055,0.0055,0.005,0.0091,0.0069,0.0099,0.0105,0.0106,0.0107,0,0.0416,0.0423,0.0445,0.0449,0.045,0.0461,0.0471,0.0474,0.0476,0.0476,0.0463,0.0433,0.041,0.0333,0.026,0.0258,0.0186,0.0136,0.0135,0.0098,0.0045,0.007,0.0108,-0.0104,0.0114,0.0114,0.0113,0,0.0451,0.0463,0.0483,0.0483,0.0485,0.0502,0.0511,0.0515,0.0566,0.0583,0.0656,0.0577,0.0623,0.0494,0.0382,0.0333,0.0322,0.0239,0.015,0.0149,0.0114,0.0108,-0.0039,0.0186,0.0186,0.0186,0.0186,0,0.0484,0.0499,0.0509,0.0522,0.0568,0.0558,0.0639,0.0629,0.0709,0.083,0.0746,0.0859,0.0674,0.0643,0.0464,0.0351,0.0385,0.0183,0.0161,0.0139,0.0135,-0.0066,-0.0167,0.0187,0.0187,0.0187,0.0187,0,0.0512,0.0513,0.0545,0.0571,0.0586,0.0627,0.0744,0.0838,0.0882,0.1055,0.1093,0.1117,0.1083,0.0877,0.072,0.0519,0.0255,0.0305,0.0303,0.0279,-0.0043,-0.0137,-0.025,-0.0334,0.0206,0.0206,0.0206,0,0.0525,0.0544,0.059,0.0652,0.0674,0.0756,0.0854,0.0912,0.1051,0.1241,0.1366,0.1393,0.1445,0.1194,0.0831,0.0519,0.0313,0.0293,0.0165,-0.0043,-0.0164,-0.0231,-0.0299,0.0155,0.0155,0.0154,0.0154,0,0.0583,0.0604,0.0653,0.0778,0.0883,0.0996,0.1145,0.1272,0.1414,0.1557,0.1783,0.1838,0.1619,0.1321,0.0882,0.0634,0.0143,0.0273,0.0055,-0.0209,-0.0286,-0.0382,0.0122,0.015,0.015,0.0151,0.0151,0.0151,0.0668,0.0728,0.0845,0.0957,0.1084,0.1281,0.1403,0.1586,0.1807,0.2032,0.2078,0.216,0.1703,0.1103,0.0776,0.0104,0.0127,-0.0126,-0.0215,-0.0257,-0.0373,0.0134,0.013,0.013,0.013,0.0131,0.0131,0,0.0835,0.0924,0.1039,0.1207,0.1377,0.1403,0.1649,0.1786,0.2043,0.2198,0.2336,0.2122,0.157,0.0975,0.0092,-0.0332,-0.0493,-0.0557,-0.0688,-0.073,-0.0286,-0.0328,-0.0428,-0.0428,-0.0428,-0.0428,-0.0427,-0.0427,0.0963,0.1133,0.1184,0.1481,0.1582,0.1807,0.1944,0.2108,0.2239,0.2377,0.2363,0.2344,0.1835,0.0399,-0.0605,-0.0829,-0.1095,-0.113,-0.1254,-0.1008,-0.0976,-0.0946,-0.1014,-0.1255,-0.1256,-0.1675,-0.168,-0.1683]}],[{"header":{"parameterUnit":"m.s-1","parameterCategory":2,"la1":30.2991,"la2":30.254,"lo1":-89.0895,"lo2":-89.0444,"dy":0.0017,"dx":0.0017,"nx":28,"ny":28,"refTime":"2023-08-29T03:00:00:Z","depth":"2","parameterNumber":2,"parameterNumberName":"U-component_of_CURRENTS"},"data":[0,0,0,0,0,0,0,0,0,0,0,0,0,0,0,0,0,0,0,0,0,0,0,0,0,0,0,0,0,0,0,0,0,0,0,0,0,0,0,0,0,0,0,0,0,0,0,0,0,0,0,0,0,0,0,0,0,0,0.2202,0.2203,0,0.2195,0.2195,0.2195,0.2198,0.2198,0.2199,0.2199,0.226,0.2261,0.2262,0,0,0,0,0,0,0,0,0,0,0,0,0,0.2159,0.216,0.2202,0.2203,0.2203,0.2195,0.2195,0.2195,0.2198,0.2198,0.2199,0.22,0.226,0.2261,0.2262,0,0,0,0,0,0,0,0,0,0,0,0,0,0.2165,0.2161,0.2202,0.2206,0.2206,0.2195,0.2195,0.2194,0.2198,0.2199,0.2199,0.22,0.2259,0.2261,0.2263,0.2259,0,0,0.2268,0.2269,0,0,0,0,0,0,0,0,0.2165,0.2166,0.2205,0.2206,0.2206,0.2201,0.2202,0.2221,0.2198,0.2198,0.2199,0.22,0.2248,0.2251,0.2242,0.2262,0.2265,0.2268,0.2269,0.227,0.227,0,0,0,0,0,0,0,0.2164,0.2166,0.2196,0.2205,0.2206,0.2188,0.2189,0.2205,0.2218,0.2198,0.2199,0.2203,0.2249,0.2241,0.2244,0.2266,0.2268,0.227,0.2271,0.2271,0.2438,0.2441,0,0,0,0,0,0,0.2174,0.2166,0.2197,0.2196,0.219,0.2188,0.219,0.2199,0.2216,0.222,0.2202,0.2203,0.2237,0.2242,0.2246,0.2337,0.227,0.2272,0.2273,0.2435,0.2439,0.2442,0,0,0,0,0,0,0.2173,0.2177,0.2197,0.2183,0.2185,0.2189,0.2199,0.2199,0.2216,0.2219,0.2224,0.2223,0.2238,0.2244,0.23,0.2336,0.2272,0.2274,0.2431,0.2436,0.2441,0.2459,0,0,0,0,0,0,0.2172,0.2177,0.2184,0.2184,0.2186,0.2214,0.2199,0.2198,0.2218,0.2219,0.2238,0.2243,0.2239,0.2298,0.2302,0.2337,0.2275,0.2426,0.2433,0.2439,0.2454,0.2464,0.2472,0,0,0,0,0,0.2171,0.2178,0.2185,0.2189,0.2198,0.2215,0.2215,0.2217,0.2218,0.2233,0.2259,0.2244,0.2342,0.2301,0.2306,0.2342,0.2423,0.2431,0.2439,0.245,0.2462,0.2472,0,0,0,0,0,0,0.2162,0.2179,0.2187,0.2199,0.2219,0.2218,0.2224,0.2232,0.2259,0.2263,0.2271,0.2279,0.2353,0.2354,0.2309,0.2418,0.2387,0.2395,0.2394,0.2405,0.2414,0.2398,0.2277,0,0,0,0,0,0.2165,0.2175,0.2196,0.2207,0.222,0.2228,0.2235,0.2241,0.2263,0.2274,0.2292,0.2328,0.2382,0.2397,0.2439,0.2478,0.2497,0.2515,0.2524,0.2531,0.2528,0.2599,0.2613,0.2467,0.2467,0.2467,0,0,0.2166,0.2174,0.2182,0.2206,0.2216,0.2246,0.2234,0.2253,0.228,0.2278,0.2323,0.2364,0.2408,0.2466,0.2498,0.2468,0.259,0.2541,0.2546,0.2539,0.2608,0.2622,0.2634,0.2473,0.2472,0.2471,0,0,0.2186,0.2184,0.2214,0.2225,0.225,0.2258,0.2276,0.2295,0.2308,0.2354,0.2382,0.2439,0.2495,0.253,0.2558,0.2645,0.2649,0.2677,0.2685,0.2754,0.2765,0.2776,0.2828,0.2843,0.2663,0.2663,0.2663,0,0.2193,0.2225,0.2225,0.2254,0.2268,0.2275,0.2316,0.2326,0.2362,0.2392,0.2379,0.2506,0.2523,0.2619,0.2642,0.266,0.2701,0.2627,0.2761,0.2772,0.2782,0.2833,0.2849,0.2665,0.2665,0.2665,0.2664,0,0.2226,0.2262,0.2276,0.2319,0.2337,0.236,0.2384,0.2425,0.2441,0.2451,0.2546,0.2572,0.2652,0.267,0.2669,0.2768,0.2776,0.2773,0.2717,0.2796,0.2847,0.2863,0.2668,0.2667,0.2666,0.2666,0,0,0.2204,0.2293,0.2291,0.2339,0.2367,0.2391,0.2451,0.2512,0.2568,0.2585,0.2665,0.272,0.2732,0.2767,0.2789,0.2816,0.2904,0.2814,0.2817,0.2838,0.3061,0.2955,0.2962,0.2928,0.2931,0.2933,0.307,0,0.2236,0.2325,0.2343,0.242,0.2477,0.25,0.2552,0.26,0.2642,0.2715,0.2738,0.2814,0.2771,0.2822,0.2847,0.2911,0.2948,0.2868,0.3006,0.301,0.2882,0.2977,0.2742,0.2834,0.3085,0.3088,0.309,0,0.2236,0.2314,0.2413,0.2511,0.2531,0.2567,0.2669,0.2715,0.2803,0.284,0.2907,0.2932,0.3,0.2945,0.3056,0.3014,0.304,0.3056,0.3062,0.2961,0.2932,0.2799,0.2853,0.3116,0.3114,0.3112,0.311,0,0.223,0.2335,0.2427,0.2449,0.257,0.2621,0.2669,0.2756,0.2798,0.2927,0.2987,0.3065,0.3119,0.3167,0.3174,0.3146,0.3277,0.3253,0.3182,0.3175,0.2998,0.297,0.3333,0.3333,0.3332,0.3332,0.3332,0,0.2241,0.2315,0.2433,0.2489,0.2553,0.2635,0.2707,0.2782,0.2889,0.2945,0.3042,0.3109,0.3175,0.324,0.3243,0.3255,0.3345,0.32,0.3209,0.3,0.2972,0.3227,0.3213,0.3337,0.3336,0.3335,0.3334,0,0.2233,0.2325,0.2415,0.2541,0.256,0.2599,0.2672,0.2747,0.2869,0.2967,0.3013,0.316,0.3256,0.3303,0.3389,0.3336,0.3365,0.3344,0.3079,0.3051,0.3205,0.3191,0.3307,0.3305,0.3303,0.3301,0.3299,0,0.2256,0.231,0.2394,0.2427,0.2482,0.2543,0.2591,0.2702,0.2769,0.2974,0.302,0.3172,0.3229,0.3325,0.328,0.3294,0.3349,0.307,0.2954,0.3209,0.3207,0.3196,0.3185,0.2747,0.2741,0.2736,0.2732,0,0.2284,0.2291,0.2369,0.2413,0.2459,0.2493,0.2568,0.2585,0.2745,0.283,0.2968,0.3047,0.3157,0.3054,0.3065,0.3031,0.3046,0.297,0.3348,0.2768,0.2685,0.2681,0.2689,0.269,0.2694,0.2697,0.2699,0.2701,0.2275,0.2288,0.2366,0.2393,0.2435,0.2461,0.2455,0.2512,0.256,0.2621,0.2773,0.2794,0.2842,0.2724,0.2667,0.2632,0.2821,0.2697,0.2711,0.273,0.2619,0.2534,0.249,0.2493,0.2496,0.2498,0.25,0,0.2275,0.2315,0.2348,0.2392,0.2406,0.2445,0.2466,0.2395,0.2361,0.2416,0.2446,0.2257,0.2217,0.2296,0.2182,0.2186,0.2155,0.2106,0.205,0.2095,0.2135,0.1991,0.1698,0.1695,0.1692,0.169,0,0,0.2303,0.2337,0.2345,0.2367,0.2385,0.2351,0.2331,0.2169,0.2125,0.1973,0.1942,0.2051,0.2207,0.1889,0.1877,0.1781,0.1918,0.1715,0.2364,0.2343,0.2379,0.2488,0.2319,0,0,0,0,0]},{"header":{"parameterUnit":"m.s-1","parameterCategory":2,"la1":30.2991,"la2":30.254,"lo1":-89.0895,"lo2":-89.0444,"dy":0.0017,"dx":0.0017,"nx":28,"ny":28,"refTime":"2023-08-29T03:00:00:Z","depth":"2","parameterNumber":3,"parameterNumberName":"V-component_of_CURRENTS"},"data":[0,0,0,0,0,0,0,0,0,0,0,0,0,0,0,0,0,0,0,0,0,0,0,0,0,0,0,0,0,0,0,0,0,0,0,0,0,0,0,0,0,0,0,0,0,0,0,0,0,0,0,0,0,0,0,0,0,0,-0.0092,-0.0093,0,-0.0184,-0.0185,-0.0187,-0.024,-0.024,-0.024,-0.024,-0.0317,-0.0318,-0.032,0,0,0,0,0,0,0,0,0,0,0,0,0,-0.0051,-0.0051,-0.0092,-0.0093,-0.0094,-0.0184,-0.0186,-0.0187,-0.024,-0.024,-0.024,-0.024,-0.0316,-0.0318,-0.0321,0,0,0,0,0,0,0,0,0,0,0,0,0,-0.01,-0.0051,-0.0092,-0.013,-0.0134,-0.0184,-0.0186,-0.0187,-0.024,-0.024,-0.024,-0.024,-0.0315,-0.0318,-0.0321,-0.0338,0,0,-0.033,-0.0331,0,0,0,0,0,0,0,0,-0.0097,-0.0102,-0.0123,-0.0128,-0.0132,-0.0199,-0.0199,-0.0236,-0.024,-0.0202,-0.024,-0.024,-0.0275,-0.0281,-0.0301,-0.0341,-0.0345,-0.033,-0.0332,-0.0333,-0.0334,0,0,0,0,0,0,0,-0.0094,-0.0099,-0.013,-0.0124,-0.013,-0.0173,-0.018,-0.0207,-0.0238,-0.0205,-0.0209,-0.0216,-0.0277,-0.0298,-0.0303,-0.0346,-0.033,-0.0333,-0.0335,-0.0336,-0.0401,-0.0401,0,0,0,0,0,0,-0.0074,-0.0095,-0.0127,-0.0133,-0.0113,-0.0173,-0.0181,-0.0179,-0.0238,-0.0247,-0.0216,-0.0218,-0.0293,-0.0299,-0.0306,-0.0317,-0.0333,-0.0336,-0.0338,-0.0401,-0.0401,-0.0401,0,0,0,0,0,0,-0.0073,-0.0076,-0.0124,-0.0115,-0.0124,-0.0173,-0.0172,-0.0181,-0.0199,-0.0246,-0.0255,-0.0224,-0.0293,-0.0302,-0.0333,-0.032,-0.0337,-0.034,-0.0402,-0.0401,-0.0401,-0.0346,0,0,0,0,0,0,-0.0071,-0.0074,-0.0068,-0.0113,-0.0124,-0.0146,-0.0172,-0.0183,-0.0203,-0.0207,-0.0256,-0.0263,-0.0294,-0.0328,-0.0336,-0.0325,-0.0342,-0.0402,-0.0402,-0.0401,-0.0348,-0.0344,-0.0341,0,0,0,0,0,-0.0069,-0.0061,-0.0067,-0.0071,-0.0112,-0.0146,-0.0156,-0.0193,-0.0203,-0.021,-0.0246,-0.0262,-0.0333,-0.0331,-0.034,-0.0329,-0.0402,-0.0402,-0.0401,-0.0349,-0.0345,-0.0341,0,0,0,0,0,0,-0.0042,-0.0067,-0.0074,-0.0073,-0.0102,-0.0154,-0.0164,-0.0187,-0.0223,-0.0223,-0.0267,-0.0278,-0.0298,-0.0324,-0.0321,-0.0348,-0.0367,-0.0369,-0.0324,-0.032,-0.0317,-0.0285,-0.0345,0,0,0,0,0,-0.003,-0.0029,-0.0062,-0.0062,-0.0071,-0.0114,-0.0132,-0.0155,-0.0192,-0.0208,-0.0242,-0.0277,-0.0306,-0.0321,-0.0351,-0.0369,-0.0386,-0.0367,-0.0363,-0.036,-0.0341,-0.0362,-0.0359,-0.0401,-0.0401,-0.0401,0,0,-0.0019,-0.0032,-0.0032,-0.0056,-0.008,-0.0089,-0.0126,-0.0146,-0.0152,-0.0209,-0.0227,-0.0265,-0.0308,-0.0329,-0.034,-0.0349,-0.036,-0.036,-0.0357,-0.0339,-0.0362,-0.0358,-0.0354,-0.0401,-0.0401,-0.0401,0,0,0.0001,-0.0006,0.0001,-0.0016,-0.0043,-0.0069,-0.007,-0.0114,-0.013,-0.0155,-0.0195,-0.0226,-0.0271,-0.0301,-0.032,-0.0315,-0.034,-0.0324,-0.028,-0.0302,-0.0298,-0.0295,-0.032,-0.0319,-0.0322,-0.0322,-0.0322,0,0.0016,0.0022,-0.0005,-0.0002,-0.001,-0.0053,-0.0049,-0.0072,-0.0121,-0.0124,-0.0148,-0.021,-0.0254,-0.0272,-0.0276,-0.0304,-0.0321,-0.0292,-0.0295,-0.0292,-0.029,-0.0316,-0.0316,-0.0319,-0.032,-0.032,-0.032,0,0.004,0.0046,0.0048,0.0043,0.003,0.0025,-0.0004,-0.0012,-0.0035,-0.006,-0.0081,-0.0146,-0.0174,-0.0201,-0.024,-0.0244,-0.0264,-0.0287,-0.0301,-0.0282,-0.0312,-0.0313,-0.0315,-0.0316,-0.0317,-0.0318,0,0,0.0074,0.0068,0.007,0.0085,0.0055,0.0055,0.0052,0.0041,0.0062,0.0008,0.0029,-0.0049,-0.0075,-0.01,-0.0153,-0.0183,-0.02,-0.0223,-0.0226,-0.0238,-0.0246,-0.0298,-0.0305,-0.0222,-0.0222,-0.0221,-0.0276,0,0.0102,0.0127,0.0108,0.0135,0.0148,0.0121,0.0131,0.0119,0.0101,0.0113,0.0053,0.0048,-0.0038,-0.0041,-0.0088,-0.0161,-0.0198,-0.0182,-0.027,-0.0273,-0.0313,-0.0306,-0.0259,-0.0307,-0.0277,-0.0278,-0.0278,0,0.0131,0.0148,0.0182,0.0204,0.0209,0.0226,0.0252,0.0254,0.025,0.0243,0.0218,0.0177,0.0129,0.0061,-0.0059,-0.0044,-0.0134,-0.0205,-0.0209,-0.0272,-0.0326,-0.0321,-0.0311,-0.028,-0.028,-0.028,-0.0279,0,0.0181,0.0198,0.0235,0.0241,0.0259,0.0288,0.0301,0.0304,0.0339,0.0341,0.0376,0.0293,0.0284,0.0158,-0.0007,-0.0021,-0.0139,-0.0176,-0.0312,-0.0317,-0.03,-0.0305,-0.0253,-0.0253,-0.0253,-0.0253,-0.0253,0,0.0219,0.0254,0.0275,0.0306,0.0367,0.0361,0.0436,0.0434,0.0479,0.0535,0.0461,0.0476,0.031,0.0214,0.0047,-0.0137,-0.0102,-0.0295,-0.0331,-0.0283,-0.0285,-0.0278,-0.0281,-0.0255,-0.0255,-0.0254,-0.0254,0,0.0274,0.028,0.0335,0.0378,0.0396,0.0451,0.0533,0.06,0.062,0.0698,0.0715,0.0639,0.0498,0.031,0.0106,-0.0053,-0.0233,-0.0312,-0.0251,-0.0279,-0.0408,-0.0407,-0.0449,-0.0451,-0.0453,-0.0455,-0.0456,0,0.0303,0.0338,0.0398,0.0452,0.0482,0.0563,0.063,0.0666,0.0739,0.0778,0.0826,0.0732,0.0646,0.0327,0.0047,-0.023,-0.0271,-0.0373,-0.0402,-0.0395,-0.0426,-0.0422,-0.0418,-0.0359,-0.0359,-0.036,-0.036,0,0.0369,0.0394,0.0448,0.0542,0.0624,0.0727,0.0823,0.0866,0.0916,0.0968,0.0972,0.091,0.0635,0.0352,-0.0009,-0.0198,-0.0326,-0.0392,-0.0381,-0.0327,-0.0318,-0.0346,-0.0344,-0.0363,-0.0363,-0.0362,-0.0362,-0.0362,0.0428,0.0471,0.0543,0.0623,0.0743,0.086,0.0877,0.0992,0.106,0.1078,0.1029,0.0948,0.0688,0.0211,-0.0081,-0.0364,-0.0372,-0.0472,-0.0467,-0.0463,-0.0453,-0.0449,-0.0516,-0.0517,-0.0517,-0.0518,-0.0518,0,0.0453,0.0518,0.0618,0.071,0.0809,0.0896,0.0984,0.0991,0.1012,0.1103,0.1072,0.0824,0.0537,0.0258,-0.0157,-0.0431,-0.0425,-0.0513,-0.0432,-0.0428,-0.0425,-0.041,-0.0463,-0.0464,-0.0464,-0.0465,0,0,0.0487,0.0538,0.0565,0.0705,0.0807,0.0894,0.0903,0.0972,0.102,0.1036,0.1035,0.0937,0.0634,0.0339,-0.001,-0.0227,-0.027,-0.0276,-0.0293,-0.0154,-0.0147,-0.0377,-0.0348,0,0,0,0,0]}],[{"header":{"parameterUnit":"m.s-1","parameterCategory":2,"la1":30.2991,"la2":30.254,"lo1":-89.0895,"lo2":-89.0444,"dy":0.0017,"dx":0.0017,"nx":28,"ny":28,"refTime":"2023-08-29T03:00:00:Z","depth":"4","parameterNumber":2,"parameterNumberName":"U-component_of_CURRENTS"},"data":[0,0,0,0,0,0,0,0,0,0,0,0,0,0,0,0,0,0,0,0,0,0,0,0,0,0,0,0,0,0,0,0,0,0,0,0,0,0,0,0,0,0,0,0,0,0,0,0,0,0,0,0,0,0,0,0,0,0,0.113,0.1131,0,0.1197,0.1198,0.1198,0.1246,0.1247,0.1247,0.1248,0.1276,0.1276,0.1276,0,0,0,0,0,0,0,0,0,0,0,0,0,0.1068,0.1068,0.113,0.1131,0.1132,0.1197,0.1198,0.1199,0.1246,0.1247,0.1248,0.1248,0.1276,0.1276,0.1276,0,0,0,0,0,0,0,0,0,0,0,0,0,0.1108,0.1069,0.113,0.1166,0.117,0.1197,0.1198,0.1199,0.1246,0.1247,0.1248,0.1249,0.1276,0.1276,0.1276,0.1257,0,0,0.1277,0.1277,0,0,0,0,0,0,0,0,0.1106,0.111,0.1159,0.1164,0.1168,0.1217,0.1187,0.1217,0.1246,0.1214,0.1248,0.1249,0.1254,0.1256,0.1263,0.1259,0.126,0.1277,0.1277,0.1277,0.1277,0,0,0,0,0,0,0,0.1103,0.1107,0.1153,0.1161,0.1166,0.1188,0.1194,0.1193,0.1224,0.1216,0.1221,0.1233,0.1256,0.1262,0.1263,0.126,0.1277,0.1277,0.1277,0.1277,0.1332,0.1333,0,0,0,0,0,0,0.1098,0.1104,0.1151,0.1156,0.1142,0.1189,0.1195,0.1198,0.1225,0.1232,0.1232,0.1235,0.1261,0.1263,0.1265,0.1336,0.1277,0.1277,0.1277,0.133,0.1332,0.1333,0,0,0,0,0,0,0.1097,0.1101,0.1149,0.1135,0.1143,0.1189,0.1191,0.1199,0.1233,0.1238,0.1243,0.1263,0.1262,0.1264,0.129,0.1334,0.1277,0.1278,0.1329,0.1331,0.1333,0.1419,0,0,0,0,0,0,0.1094,0.11,0.1115,0.1134,0.1144,0.1179,0.1191,0.1199,0.1239,0.1244,0.1265,0.1267,0.1263,0.129,0.1291,0.1333,0.1278,0.1327,0.133,0.1332,0.1415,0.1424,0.1432,0,0,0,0,0,0.1092,0.1105,0.1115,0.1122,0.1157,0.118,0.1186,0.122,0.124,0.1255,0.1276,0.1268,0.1307,0.1291,0.1291,0.1335,0.1326,0.1329,0.1332,0.1411,0.1422,0.1432,0,0,0,0,0,0,0.1084,0.1112,0.1123,0.1144,0.1167,0.1189,0.1216,0.1234,0.1262,0.1277,0.1279,0.1282,0.1309,0.1311,0.1294,0.1357,0.1317,0.132,0.1377,0.1388,0.1396,0.1404,0.1278,0,0,0,0,0,0.1088,0.1111,0.1131,0.1152,0.1165,0.1193,0.1214,0.1235,0.1258,0.1273,0.1293,0.1312,0.1316,0.1345,0.1335,0.1382,0.1384,0.1411,0.1419,0.1427,0.1433,0.1492,0.1508,0.1343,0.1343,0.1343,0,0,0.109,0.1113,0.1125,0.1154,0.1176,0.1198,0.1208,0.1245,0.1273,0.1269,0.1323,0.1325,0.1325,0.1365,0.1382,0.1384,0.1471,0.1431,0.1437,0.1439,0.1497,0.1513,0.1528,0.1345,0.1345,0.1345,0,0,0.1089,0.1125,0.1133,0.116,0.1201,0.1222,0.1237,0.1274,0.1304,0.1345,0.1346,0.1386,0.1407,0.143,0.1438,0.1491,0.1489,0.1494,0.1579,0.1637,0.1652,0.1664,0.1674,0.1687,0.1531,0.1531,0.1531,0,0.109,0.1104,0.114,0.1159,0.1187,0.1234,0.1248,0.1286,0.1333,0.1366,0.1373,0.142,0.1437,0.1481,0.1523,0.1512,0.1531,0.1542,0.1651,0.1663,0.1675,0.1682,0.1695,0.1536,0.1535,0.1535,0.1534,0,0.1092,0.1111,0.1125,0.1165,0.12,0.1228,0.1279,0.133,0.138,0.142,0.1472,0.1493,0.1532,0.1554,0.1569,0.166,0.1638,0.163,0.1628,0.1697,0.1699,0.1711,0.1542,0.1541,0.1539,0.1538,0,0,0.1068,0.1111,0.112,0.1138,0.1209,0.1236,0.1301,0.1366,0.1419,0.1481,0.1557,0.1595,0.1626,0.1637,0.1654,0.174,0.1854,0.1754,0.1755,0.1768,0.1965,0.1837,0.1838,0.1883,0.1886,0.1889,0.1928,0,0.1055,0.1073,0.111,0.1151,0.1166,0.1244,0.1305,0.1385,0.1448,0.1545,0.1605,0.1674,0.1649,0.1702,0.177,0.1837,0.1894,0.1842,0.189,0.189,0.1775,0.185,0.1898,0.1937,0.194,0.1942,0.1943,0,0.1044,0.106,0.108,0.1146,0.1165,0.1218,0.133,0.1396,0.1536,0.1589,0.1663,0.1717,0.1841,0.1826,0.1932,0.1908,0.1944,0.1984,0.1986,0.1846,0.1787,0.1856,0.1965,0.1963,0.1961,0.196,0.1959,0,0.1005,0.1046,0.1063,0.1089,0.1173,0.1226,0.1307,0.1425,0.1495,0.1655,0.1714,0.1815,0.1918,0.1966,0.2033,0.2018,0.215,0.2125,0.2011,0.2001,0.2064,0.205,0.2192,0.2192,0.2192,0.2192,0.2192,0,0.0973,0.0992,0.1058,0.1075,0.1132,0.1227,0.1321,0.1399,0.1551,0.1648,0.1748,0.1806,0.1979,0.206,0.2075,0.207,0.2163,0.2031,0.2017,0.2094,0.2084,0.2071,0.2057,0.2193,0.2193,0.2193,0.2193,0,0.0919,0.0953,0.0982,0.1074,0.1108,0.1174,0.1331,0.1411,0.1536,0.1666,0.174,0.1892,0.1991,0.2066,0.22,0.2125,0.2138,0.2104,0.2169,0.2155,0.1933,0.1923,0.1984,0.198,0.1977,0.1974,0.1972,0,0.0878,0.0891,0.0974,0.099,0.1034,0.1146,0.1232,0.1399,0.1495,0.1669,0.174,0.1899,0.1972,0.2,0.2104,0.2104,0.2076,0.2059,0.2007,0.1939,0.192,0.1914,0.1908,0.1967,0.1966,0.1965,0.1964,0,0.0816,0.0866,0.0899,0.0943,0.1018,0.1095,0.1241,0.1285,0.15,0.1612,0.1696,0.1749,0.186,0.1942,0.1976,0.1958,0.2066,0.2024,0.203,0.1981,0.1919,0.1901,0.1899,0.1953,0.1955,0.1956,0.1956,0,0.0786,0.0799,0.0863,0.0888,0.0977,0.1035,0.1103,0.1237,0.1353,0.1552,0.1584,0.1693,0.186,0.1865,0.1874,0.1879,0.1847,0.1781,0.1799,0.1813,0.1742,0.1637,0.1585,0,0,0,0,0,0.0743,0.0757,0.0792,0.0831,0.0922,0.0969,0.1118,0.1206,0.1393,0.1417,0.1499,0.1574,0.1621,0.1685,0.1657,0.1796,0.1851,0.1755,0.1783,0.189,0.1903,0.1837,0,0,0,0,0,0,0.0713,0.0759,0.0777,0.0803,0.0807,0.0921,0.0998,0.1102,0.114,0.13,0.134,0.1467,0.1543,0.1609,0.1617,0.1639,0.1623,0.1844,0.184,0.1883,0.1895,0.1905,0.1841,0,0,0,0,0]},{"header":{"parameterUnit":"m.s-1","parameterCategory":2,"la1":30.2991,"la2":30.254,"lo1":-89.0895,"lo2":-89.0444,"dy":0.0017,"dx":0.0017,"nx":28,"ny":28,"refTime":"2023-08-29T03:00:00:Z","depth":"4","parameterNumber":3,"parameterNumberName":"V-component_of_CURRENTS"},"data":[0,0,0,0,0,0,0,0,0,0,0,0,0,0,0,0,0,0,0,0,0,0,0,0,0,0,0,0,0,0,0,0,0,0,0,0,0,0,0,0,0,0,0,0,0,0,0,0,0,0,0,0,0,0,0,0,0,0,-0.007,-0.0071,0,-0.0119,-0.012,-0.0121,-0.0153,-0.0153,-0.0154,-0.0154,-0.0203,-0.0205,-0.0206,0,0,0,0,0,0,0,0,0,0,0,0,0,-0.0046,-0.0046,-0.007,-0.0071,-0.0071,-0.0119,-0.012,-0.0121,-0.0153,-0.0153,-0.0154,-0.0154,-0.0203,-0.0204,-0.0206,0,0,0,0,0,0,0,0,0,0,0,0,0,-0.0072,-0.0046,-0.007,-0.0093,-0.0095,-0.0119,-0.012,-0.0121,-0.0153,-0.0153,-0.0154,-0.0154,-0.0203,-0.0204,-0.0206,-0.0211,0,0,-0.0211,-0.0212,0,0,0,0,0,0,0,0,-0.0071,-0.0073,-0.0089,-0.0091,-0.0094,-0.013,-0.013,-0.0151,-0.0153,-0.0132,-0.0154,-0.0154,-0.0178,-0.0182,-0.0191,-0.0214,-0.0216,-0.0211,-0.0212,-0.0213,-0.0214,0,0,0,0,0,0,0,-0.0069,-0.0072,-0.009,-0.009,-0.0093,-0.0115,-0.0119,-0.0134,-0.0153,-0.0134,-0.0136,-0.0141,-0.018,-0.019,-0.0193,-0.0216,-0.0211,-0.0213,-0.0214,-0.0215,-0.0244,-0.0243,0,0,0,0,0,0,-0.0059,-0.0069,-0.0088,-0.0091,-0.0082,-0.0115,-0.0119,-0.0119,-0.0153,-0.0159,-0.014,-0.0142,-0.0187,-0.0191,-0.0195,-0.0201,-0.0213,-0.0215,-0.0216,-0.0244,-0.0243,-0.0243,0,0,0,0,0,0,-0.0059,-0.006,-0.0086,-0.0082,-0.0087,-0.0115,-0.0114,-0.0119,-0.0133,-0.0158,-0.0164,-0.0149,-0.0187,-0.0192,-0.0206,-0.0203,-0.0216,-0.0217,-0.0244,-0.0244,-0.0243,-0.0214,0,0,0,0,0,0,-0.0058,-0.006,-0.0057,-0.0081,-0.0086,-0.0098,-0.0114,-0.012,-0.0135,-0.0138,-0.0167,-0.0172,-0.0188,-0.0204,-0.0208,-0.0206,-0.0219,-0.0244,-0.0244,-0.0243,-0.0215,-0.0213,-0.0211,0,0,0,0,0,-0.0056,-0.0053,-0.0057,-0.0059,-0.0081,-0.0098,-0.0103,-0.0125,-0.0135,-0.0139,-0.0157,-0.0171,-0.0203,-0.0205,-0.021,-0.0208,-0.0245,-0.0244,-0.0243,-0.0217,-0.0213,-0.0211,0,0,0,0,0,0,-0.0043,-0.0056,-0.0061,-0.0062,-0.0077,-0.0104,-0.0109,-0.0125,-0.0143,-0.0145,-0.017,-0.0175,-0.0183,-0.02,-0.0201,-0.0214,-0.0226,-0.0226,-0.0204,-0.0201,-0.0198,-0.0184,-0.022,0,0,0,0,0,-0.0037,-0.0036,-0.0054,-0.0054,-0.006,-0.0084,-0.0094,-0.0108,-0.0127,-0.0136,-0.0157,-0.0174,-0.0184,-0.0196,-0.0207,-0.0219,-0.0247,-0.0221,-0.0218,-0.0216,-0.0208,-0.025,-0.0251,-0.0241,-0.0241,-0.0241,0,0,-0.0033,-0.0039,-0.0039,-0.0051,-0.0064,-0.0064,-0.0091,-0.0103,-0.0102,-0.0138,-0.0144,-0.0164,-0.0183,-0.0192,-0.0197,-0.0208,-0.0235,-0.0215,-0.0213,-0.0206,-0.0249,-0.025,-0.0251,-0.0241,-0.0241,-0.0241,0,0,-0.0018,-0.0027,-0.0018,-0.0026,-0.0041,-0.0054,-0.0055,-0.0081,-0.0091,-0.0103,-0.0121,-0.0142,-0.0164,-0.0177,-0.0186,-0.0178,-0.0215,-0.0182,-0.0166,-0.0207,-0.0208,-0.0209,-0.0255,-0.0261,-0.0187,-0.0187,-0.0187,0,-0.0011,0.0004,-0.002,-0.0012,-0.001,-0.0045,-0.003,-0.0048,-0.0075,-0.0079,-0.0099,-0.0132,-0.0155,-0.0161,-0.0159,-0.0173,-0.0204,-0.0176,-0.0204,-0.0206,-0.0208,-0.0255,-0.0262,-0.0186,-0.0186,-0.0186,-0.0186,0,0.0012,0.0026,0.003,0.0035,0.0029,0.0035,0.0014,0.0004,-0.0016,-0.0037,-0.0053,-0.0092,-0.0112,-0.0126,-0.0142,-0.016,-0.0181,-0.0192,-0.0212,-0.0207,-0.0257,-0.0264,-0.0183,-0.0184,-0.0184,-0.0185,0,0,0.0028,0.0046,0.005,0.007,0.006,0.006,0.0063,0.0057,0.0056,0.0016,0.0009,-0.0023,-0.0057,-0.0068,-0.0099,-0.0141,-0.0191,-0.0172,-0.0175,-0.0218,-0.0289,-0.0266,-0.0272,-0.0211,-0.0212,-0.0212,-0.0322,0,0.0061,0.0101,0.0096,0.0133,0.0154,0.0132,0.0141,0.0125,0.0094,0.0072,0.0024,0.0002,-0.0031,-0.005,-0.0093,-0.0161,-0.0208,-0.0161,-0.0287,-0.029,-0.027,-0.0278,-0.0215,-0.0328,-0.033,-0.0331,-0.0332,0,0.009,0.0119,0.0167,0.0201,0.0207,0.022,0.0224,0.0222,0.0181,0.0155,0.0113,0.0062,0.0008,-0.003,-0.0146,-0.0116,-0.0196,-0.0258,-0.0264,-0.0253,-0.0279,-0.0332,-0.0346,-0.0345,-0.0344,-0.0343,-0.0342,0,0.0125,0.0168,0.0215,0.0225,0.0251,0.027,0.0277,0.025,0.0245,0.0197,0.0168,0.0103,0.0055,-0.0041,-0.017,-0.0164,-0.0312,-0.0322,-0.0377,-0.0377,-0.038,-0.0377,-0.0409,-0.0409,-0.0409,-0.0409,-0.0408,0,0.0165,0.0202,0.0239,0.0266,0.0315,0.0314,0.034,0.033,0.0303,0.029,0.0211,0.0172,0.0047,-0.0057,-0.0164,-0.0291,-0.031,-0.0372,-0.04,-0.0366,-0.0361,-0.0386,-0.0382,-0.0413,-0.0412,-0.0411,-0.0411,0,0.0189,0.0217,0.0273,0.0321,0.0335,0.0365,0.0383,0.0383,0.0359,0.0333,0.0316,0.0213,0.0091,-0.0046,-0.0212,-0.0282,-0.0408,-0.0452,-0.0412,-0.0436,-0.045,-0.0443,-0.0517,-0.0517,-0.0517,-0.0517,-0.0517,0,0.0205,0.0237,0.0306,0.0327,0.035,0.039,0.0403,0.041,0.0407,0.0353,0.0338,0.0221,0.014,-0.0071,-0.0211,-0.0404,-0.0428,-0.0497,-0.0461,-0.0439,-0.046,-0.0453,-0.0446,-0.0517,-0.0517,-0.0517,-0.0517,0,0.0218,0.0242,0.0278,0.0329,0.036,0.0404,0.0432,0.0437,0.0432,0.0417,0.0359,0.0244,0.0107,-0.0049,-0.0201,-0.0342,-0.0448,-0.0497,-0.0498,-0.0465,-0.044,-0.0459,-0.0452,-0.0516,-0.0516,-0.0516,-0.0516,0,0.0205,0.0226,0.0258,0.0309,0.0346,0.0385,0.0419,0.0425,0.0434,0.0402,0.0385,0.0238,0.017,-0.0021,-0.0166,-0.029,-0.0317,-0.0352,-0.0361,-0.0363,-0.0276,-0.0219,-0.0251,0,0,0,0,0,0.0177,0.0186,0.0224,0.0279,0.0324,0.0362,0.0406,0.0433,0.0447,0.0423,0.0415,0.0297,0.0101,0.0006,-0.0112,-0.0188,-0.0362,-0.0333,-0.0412,-0.0516,-0.0516,-0.0437,0,0,0,0,0,0,0.0143,0.0164,0.0201,0.0237,0.028,0.0332,0.037,0.0396,0.0397,0.0401,0.0305,0.028,0.0088,0.0178,-0.0108,-0.0149,-0.0214,-0.0416,-0.0418,-0.0516,-0.0516,-0.0516,-0.0435,0,0,0,0,0]}]]